map of SMA home
SMA - Airport
Location
City:  Santa Maria, Região Autónoma dos Açores (Azores), Portugal
ICAO:LPAZ
IATA:SMA

Details
Type:Airport (Aerodrome, Airfield)
Use:Public/Civil, International (customs port of entry)
Latitude:36°58'17"N (36.971390)
Longitude:25°10'14"W (-25.170638)
Datum:WGS 1984
Elevation:308 ft (94 m)
Variation:8.20°W (WMM2015 magnetic declination)
0.14° annual change
Runways:3
Longest:10000 × 197 ft (3048 × 60 m), paved

Time
Time Zone:UTC-1 (DST+0)
Local Time:

Weather
METAR:LPAZ 250630Z 01002KT 9999 FEW020 15/13 Q1024
TAF:LPAZ 250500Z 2506/2612 VRB05KT 9999 SCT018
TEMPO 2506/2512 FEW015 BKN030
BECMG 2602/2605 28008KT FEW006 SCT012
TEMPO 2605/2612 FEW005 BKN010

Related Locations
Nearby:
Farthest:YJBY: 12177 mi / 19597 km
Jervis Bay, NSW, AU

Find:

   beyond  
but within

Other Information
Maps:
NOTAMs:
Links:
Sources:

  
flag of Portugal
flag of Região Autónoma dos Açores (Azores)
  

Sectional Chart

Flight Planning
at skyvector.com

Satellite Image

Google Maps Satellite view

 

Copyright © 2004-2017 Karl L. Swartz. All rights reserved.
The Great Circle Mapper name and logo are trademarks of the Great Circle Mapper.
All other trademarks mentioned herein belong to their respective owners.
Please see credits for attibutions and further copyright information.

  Follow gcmap on Facebook Follow gcmap on Twitter Follow gcmap on Google+ GCmap on LinkedIn

hCard Microformat

Geo Microformat